EST,Max TemperatureF,Mean TemperatureF,Min TemperatureF,Max Dew PointF,MeanDew PointF,Min DewpointF,Max Humidity, Mean Humidity, Min Humidity, Max Sea Level PressureIn, Mean Sea Level PressureIn, Min Sea Level PressureIn, Max VisibilityMiles, Mean VisibilityMiles, Min VisibilityMiles, Max Wind SpeedMPH, Mean Wind SpeedMPH, Max Gust SpeedMPH,PrecipitationIn, CloudCover, Events, WindDirDegrees
2013-11-1,61,54,47,55,46,40,86,70,53,29.80,29.65,29.46,10,10,8,16,9,25,T,6,Rain,261
2013-11-2,56,46,36,41,36,31,92,69,46,30.15,29.94,29.79,10,10,5,14,5,21,0.00,3,,296
2013-11-3,55,42,29,37,31,27,100,69,38,30.35,30.26,30.15,10,8,0,9,1,14,0.00,0,Fog,110
2013-11-4,57,46,35,41,37,34,85,68,51,30.35,30.30,30.27,10,10,10,13,6,17,0.00,0,,151
2013-11-5,62,55,48,46,43,40,93,71,48,30.38,30.28,30.15,10,10,9,13,6,20,0.02,4,Rain,159
2013-11-6,61,51,41,54,45,37,93,71,49,30.14,30.07,29.99,10,8,2,22,12,29,0.54,7,Rain,246
2013-11-7,50,42,33,38,29,23,92,64,36,30.33,30.26,30.16,10,10,10,14,6,24,0.00,1,,283
2013-11-8,53,40,27,31,27,20,92,60,28,30.40,30.31,30.22,10,10,7,9,3,14,0.00,0,,190
2013-11-9,62,49,36,40,34,25,64,52,39,30.19,30.12,30.05,10,10,10,23,10,30,0.00,0,,224
2013-11-10,53,41,28,38,29,26,85,60,35,30.37,30.30,30.17,10,10,10,12,4,19,0.00,0,,299
2013-11-11,57,42,27,42,33,25,92,62,32,30.33,30.24,30.13,10,9,3,21,7,28,0.07,7,Rain-Snow,320
2013-11-12,38,30,22,31,24,19,89,71,52,30.68,30.54,30.33,10,8,2,20,8,27,0.02,5,Snow,3
2013-11-13,40,29,18,21,16,11,92,61,30,30.67,30.57,30.40,10,10,10,14,4,17,0.00,0,,217
2013-11-14,54,41,27,20,17,13,68,44,19,30.38,30.25,30.13,10,10,10,17,9,25,0.00,0,,210
2013-11-15,55,47,38,41,27,18,76,55,33,30.14,30.10,30.06,10,10,10,14,7,21,0.00,4,,189
2013-11-16,62,55,47,58,50,42,93,83,72,30.06,29.96,29.80,10,8,2,18,11,26,0.04,7,Rain,167
2013-11-17,68,60,51,63,56,38,90,70,49,29.85,29.68,29.47,10,8,0,37,14,53,1.34,6,Fog-Rain-Thunderstorm,216
2013-11-18,53,45,36,39,32,25,76,57,38,30.25,30.07,29.88,10,10,10,20,9,32,0.00,0,,294
2013-11-19,44,36,27,27,25,24,85,67,49,30.37,30.31,30.26,10,10,10,12,5,15,0.00,0,,52
2013-11-20,51,41,30,32,28,24,78,61,44,30.30,30.24,30.18,10,10,10,15,8,19,0.00,1,,132
2013-11-21,58,51,44,50,43,33,96,77,58,30.27,30.20,30.17,10,9,5,13,5,16,0.08,7,Rain,163
2013-11-22,54,45,35,52,44,30,100,85,70,30.45,30.27,30.17,10,6,2,21,9,27,0.09,8,Rain,324
2013-11-23,36,28,20,29,18,7,85,66,47,30.65,30.51,30.42,10,10,10,21,8,29,0.00,2,,335
2013-11-24,30,22,13,13,9,6,80,60,39,30.74,30.64,30.54,10,10,10,12,4,16,0.00,0,,349
2013-11-25,35,27,18,25,15,12,73,56,38,30.51,30.33,30.20,10,10,10,12,6,17,0.00,5,,194
2013-11-26,36,33,30,28,25,21,85,71,56,30.22,30.08,29.99,10,10,9,15,4,23,0.00,7,,314
2013-11-27,32,24,16,21,12,6,75,59,42,30.34,30.17,30.01,10,9,2,15,7,22,T,5,Snow,309
2013-11-28,37,26,15,16,12,9,80,59,37,30.47,30.37,30.28,10,10,10,20,6,26,0.00,0,,212
2013-11-29,40,27,14,20,17,11,88,64,40,30.64,30.56,30.48,10,10,7,12,3,14,0.00,0,,122
2013-11-30,53,39,25,26,23,20,75,52,28,30.48,30.31,30.16,10,10,10,18,7,25,0.00,1,,180